Regional Weather Roundup
Issued by NWS

Home | Current Version | Previous Version | Text Only | Print | Product List | Glossary On
Versions: 1 2 3 4 5 6 7 8 9 10 11 12 13 14 15 16 17 18 19 20 21 22 23 24 25 26 27 28 29 30 31 32 33 34 35 36 37 38 39 40 41 42 43 44 45 46 47 48 49 50
000
ASUS43 KLOT 270512
RWRIL

ILLINOIS REGIONAL WEATHER ROUNDUP
NATIONAL WEATHER SERVICE CHICAGO/ROMEOVILLE IL
1100 PM CST SUN FEB 26 2017

NOTE: "FAIR" INDICATES FEW OR NO CLOUDS BELOW 12,000 FEET WITH NO
SIGNIFICANT WEATHER AND/OR OBSTRUCTIONS TO VISIBILITY.

* THESE STATIONS ARE NOT UNDER NWS QUALITY CONTROL. THEY ALSO MAY NOT
  REPORT WEATHER SUCH AS PRECIPITATION OR FOG.

ILZ001-002-007-009-015-016-024-270600-
NORTHWEST ILLINOIS

CITY           SKY/WX    TMP DP  RH WIND       PRES   REMARKS
MOLINE         MOCLDY    33  29  85 CALM      30.06R
STERLING*      CLEAR     31  29  92 W5        30.06R WCI  26
$$

ILZ003-004-008-010-011-017-018-270600-
NORTH CENTRAL ILLINOIS

CITY           SKY/WX    TMP DP  RH WIND       PRES   REMARKS
ROCKFORD       PTCLDY    34  28  79 S5        30.07R WCI  30
FREEPORT*      PTCLDY    31  24  76 SW7       30.06R WCI  24
ROCHELLE*      PTCLDY    33  32  95 SW8       30.06R WCI  26
DE KALB*       PTCLDY    35  32  88 SW8       30.06R WCI  29
PERU*          MOCLDY    39  24  55 SW12      30.07S WCI  31
$$

ILZ005-006-012>014-019>023-270600-
NORTHEAST ILLINOIS

CITY           SKY/WX    TMP DP  RH WIND       PRES   REMARKS
CHICAGO-OHARE  PTCLDY    39  27  62 SW9       30.05R WCI  33
CHICAGO-MIDWAY PTCLDY    39  24  55 SW10      30.07R WCI  32
AURORA         PTCLDY    36  26  67 S9        30.06R WCI  29
LANSING*       CLOUDY    34  28  79 SW6       30.09R WCI  29
JOLIET*        MOCLDY    38  27  63 SW7       30.08S WCI  33
WAUKEGAN       CLEAR     38  30  73 SW8       30.03R WCI  32
DUPAGE AIRPORT PTCLDY    36  26  67 SW9       30.05R WCI  29
KANKAKEE*      CLEAR     32  25  74 SW10      30.11R WCI  24
WHEELING       CLOUDY    40  29  64 SW9       30.06R
MORRIS*        MOCLDY    37  26  64 SW12      30.07R WCI  29
ROMEOVILLE*    MOCLDY    36  29  76 SW9       30.07R WCI  29
NORTHERLY ISL    N/A     40  24  53 SW10        N/A
$$

LMZ740>746-270600-
SOUTHERN LAKE MICHIGAN

STATION/POSITION SKY/WX   TEMP    WIND        PRES    VSBY  WAVE
                          AIR SEA DIR/SP/G                  HT/PER
                          (F)     (DEG/KT/KT) (MB)    (MI)  (FT/S)
HARRISON CRIB              42     210/ 19/ 21   N/A
BURNHAM HARBOR             40     200/  6/ 12   N/A
CALUMET HARBOR             39     210/  9/ 13 1017.7R
BURNS HARBOR               39     200/ 13/ 18 1019.0R
MICHIGAN CITY              39     180/ 15/ 17   N/A
$$

ILZ025>027-034>036-040-047-049-050-058-095>099-270600-
WEST-CENTRAL ILLINOIS

CITY           SKY/WX    TMP DP  RH WIND       PRES   REMARKS
QUINCY         CLEAR     34  30  85 S5        30.08S WCI  30
GALESBURG*     CLOUDY    37  27  66 S10         N/A  WCI  30
MACOMB*        PTCLDY    35  27  72 SW8       30.10S WCI  29
JACKSONVILLE*  CLOUDY    38  32  78 S8        30.11R WCI  32
PITTSFIELD*    PTCLDY    38  33  83 S7        30.10F WCI  32
$$

ILZ028>032-037-038-041>044-048-051>054-059>061-270600-
CENTRAL ILLINOIS

CITY           SKY/WX    TMP DP  RH WIND       PRES   REMARKS
PONTIAC        CLEAR     36  25  65 SW10      30.10S WCI  29
BLOOMINGTON    CLEAR     34  24  67 SW10      30.11R WCI  26
DECATUR        PTCLDY    36  26  67 SW12      30.12R WCI  28
PEORIA         CLEAR     33  23  66 S7        30.10R WCI  27
LACON*         PTCLDY    36  25  64 S3        30.09R
LINCOLN*       CLEAR     35  28  77 SW3       30.12R
SPRINGFIELD    PTCLDY    39  31  72 S10       30.12R WCI  32
TAYLORVILLE    CLEAR     36  30  79 S9        30.13R WCI  29
$$

ILZ033-039-045-046-055>057-062-063-270600-
EAST-CENTRAL ILLINOIS

CITY           SKY/WX    TMP DP  RH WIND       PRES   REMARKS
CHAMPAIGN      CLEAR     32  21  64 S10       30.12R WCI  24
RANTOUL*       CLEAR     35  24  63 CALM      30.12R
MATTOON        CLOUDY    41  30  65 SW9       30.13R
PARIS*         CLOUDY    41  30  65 SW8       30.15R
$$

ILZ079-100>102-270600-
SOUTHWEST ILLINOIS

CITY           SKY/WX    TMP DP  RH WIND       PRES   REMARKS
ALTON          CLOUDY    40  34  79 S8        30.13F
BELLEVILLE     CLOUDY    41  37  86 CALM      30.13F
CAHOKIA*       LGT RAIN  41  35  79 CALM      30.13F
SPARTA*        LGT RAIN  42  34  72 CALM      30.15S
$$

ILZ064>066-069>071-074>076-080>082-084>086-088>090-092>094-270600-
SOUTH-CENTRAL ILLINOIS

CITY           SKY/WX    TMP DP  RH WIND       PRES   REMARKS
CARBONDALE     CLOUDY    43  32  65 CALM      30.15R
CAIRO*         CLOUDY    49  31  49 S9        30.15S
EFFINGHAM*     CLOUDY    42  35  76 SW10      30.17S
MARION         CLOUDY    46  27  46 CALM      30.15S
MT. VERNON     CLOUDY    41  37  86 CALM      30.15F
CENTRALIA*     DRIZZLE   43  36  76 SW5       30.14F
SALEM*         CLOUDY    43  35  72 SW6       30.15F
METROPOLIS*    CLOUDY    48  25  41 CALM      30.16S
$$

ILZ067-068-072-073-078-083-087-091-270600-
SOUTHEAST ILLINOIS

CITY           SKY/WX    TMP DP  RH WIND       PRES   REMARKS
LAWRENCEVILLE  CLOUDY    44  33  65 SW5       30.17S
FLORA*         CLOUDY    44  34  67 S6        30.17R
FAIRFIELD*     CLOUDY    44  33  66 CALM      30.15S
HARRISBURG*    CLOUDY    44  34  67 CALM      30.17R
ROBINSON*      LGT RAIN  43  33  68 SW10G18   30.18R
CARMI*         CLOUDY    43  34  71 S3        30.16S
$$

ABBREVIATIONS USED IN REMARKS
   TC - TEMPERATURE IN CELSIUS
  WCI - WIND CHILL INDEX
   HX - HEAT INDEX
  VSB - VISIBILITY
$$




USA.gov is the U.S. government's official web portal to all federal, state and local government web resources and services.